Find Starlink 6337

NORAD ID: 56528 Int'l Des: 2023-065 Owner: SPXS Country: US Constellation: starlink operational
LEOCIRCULAR

实时位置

正在加载3D地球...

关于 Starlink 6337

正在加载描述...

即将过境

Passes for default location (London). Set your location on the main map for personalized predictions.

高度历史

Loading altitude history...

两行轨道根数

1 56528U 23065AB 26106.91668981 -.00020909 00000-0 -77164-3 0 9995
2 56528 43.0012 0.0705 0001901 258.1462 154.6406 15.26753471 5764
Epoch: Apr 16, 2026 • Age: 5 hours

当前状态

高度 484.7 km
速度 7.63 km/s
星下点 6.94°N, 82.2°W
发射日期 May 14, 2023
运行时间 2.9 years
类型 internet

技术详情

分类 Payload
质量 305.00 kg
干质量 290.00 kg
总质量 305.00 kg
长度 0.20 m
直径 2.80 m
跨度 9.00 m
形状 Box + pan
制造商 SPXS
平台类型 Starlink
阶段状态 In Orbit
所有者/国家 SPXS/US

Most Searched